Torna al catalogo

STARLINK-38241

AttivoComunicazioniSSO
NORAD 100225·PAYLOAD·🇺🇸 United States

Lanciato Aug 4, 2026 da Vandenberg Space Force Base

Loading…

Prossimi Passaggi (prossime 24 ore)

TLE

AggiornatoSource: Space-Track

Epoca: Sep 14, 2026, 22:30 UTC

1 A0225U 26177N   26257.93757575  .00037494  00000-0  68707-3 0  9990
2 A0225  97.2831 308.7479 0001734  85.2789 274.8660 15.49217784  7573

Traccia STARLINK-38241 in tempo reale con AllMySat

Download on the App Store